Location: Cahas Mountain Overlook
(37.0833°N, 80.1000°W)
Time: 19:48:07
(UTC-04:00)

Tiros 1 - Pass Details

Date: 11 February 2026
Orbit: 618 x 649 km, 48.4° (Epoch: 13 March)

Event Time Altitude Azimuth Distance (km) Brightness Sun altitude
Rises 19:16:28 0° 282° (WNW) 2,887 11.9 -16.5°
Reaches altitude 10° 19:20:49 10° 243° (WSW) 1,982 10.7 -17.4°
Maximum altitude 19:21:41 11° 232° (SW) 1,950 10.4 -17.5°
Drops below altitude 10° 19:22:33 10° 221° (SW) 1,983 10.3 -17.7°
Sets 19:26:56 0° 181° (S) 2,892 10.6 -18.6°
